SCP
1 1 1 1 1 2 2 1 1 1 1 1 1 1 1 1 1 1 1 1 2 2 3 3 3 2 2 2 2 2 2 2 1 1 1 1 1 1 1 1 1 1 1
1 1 1 1 1 1 1 1 1 1 1 1 1 1 1 1 1 1 1 2 2 2 2 2 2 2 2 2 2 2 2 2 1 1 1 1 1 1 1 1 1 1 1
1 1 1 1 1 1 1 1 1 2 1 1 1 1 1 1 1 2 2 2 2 2 2 2 2 2 2 2 2 2 2 1 1 1 1 1 1 1 1 1 1 1 1
2 1 1 1 1 1 1 1 1 2 2 1 1 1 1 1 1 1 2 1 1 1 1 2 2 2 2 2 2 2 2 1 1 1 1 1 1 1 1 1 1 1 1
2 1 1 1 1 1 1 1 1 2 2 1 1 1 1 1 1 1 1 1 1 1 1 2 2 2 2 2 2 2 2 2 2 1 1 1 1 1 1 1 1 1 1
1 1 1 1 1 1 1 1 1 1 2 1 1 1 1 1 1 1 1 1 1 1 1 2 2 2 2 2 2 2 2 2 2 2 2 1 1 1 1 2 2 1 1
1 1 1 1 1 1 1 1 1 1 1 1 1 1 1 1 1 1 1 1 1 1 1 2 2 2 2 2 2 2 2 2 2 2 2 2 1 1 1 2 2 2 2
2 1 1 1 1 1 1 1 1 1 1 1 1 2 1 1 1 1 1 2 2 2 2 2 2 2 2 2 2 2 2 2 2 2 2 2 2 1 1 1 1 2 2
2 2 2 1 1 1 1 1 2 2 2 1 1 2 2 2 1 1 1 2 2 2 2 2 2 2 3 2 2 2 2 2 2 2 2 2 2 2 1 1 1 1 1
3 2 2 2 2 2 1 2 2 2 2 2 2 3 3 2 2 1 1 1 2 2 2 2 2 2 3 3 3 2 2 2 2 2 2 2 2 2 2 1 1 1 1
3 3 3 3 3 2 2 2 3 3 3 3 3 4 4 3 2 2 1 1 2 2 2 2 3 3 3 3 3 2 2 2 1 2 2 2 2 2 2 2 2 1 2
3 3 3 3 3 3 3 3 3 4 4 4 4 5 5 4 3 2 1 1 1 1 2 3 3 3 3 3 3 2 2 1 1 1 1 1 2 1 1 1 1 1 1
4 4 3 4 4 4 4 4 4 5 5 5 5 6 5 4 3 2 2 1 1 1 2 2 2 3 3 3 2 2 2 1 1 1 1 1 1 1 1 1 1 1 1
5 4 4 5 5 5 5 5 5 5 6 6 6 6 5 4 2 2 2 1 1 1 1 2 2 2 3 3 3 3 2 2 1 1 1 1 1 1 1 1 1 1 1
6 5 5 6 6 6 6 6 5 5 5 5 5 5 5 3 2 2 2 1 1 1 1 1 2 2 3 3 3 4 3 2 1 1 0 0 0 1 1 1 1 1 1
6 6 6 6 6 7 7 6 5 4 4 4 4 4 3 3 2 2 2 2 2 2 2 2 2 3 3 3 3 4 4 3 1 1 0 0 0 0 0 1 1 1 1
5 6 6 6 5 5 5 5 4 4 4 4 3 3 3 3 2 2 2 2 3 3 3 3 3 3 4 4 4 4 4 3 2 1 1 0 0 0 0 0 0 1 1
5 5 5 5 5 4 4 4 4 4 4 3 3 3 3 3 3 3 3 3 3 3 4 4 4 4 5 5 6 5 4 3 3 2 1 1 1 1 1 1 0 0 0
5 5 6 6 6 5 5 5 4 4 4 4 4 4 4 4 4 5 5 4 4 4 4 5 5 5 5 6 7 6 6 5 4 3 2 1 1 1 1 1 0 0 0
6 6 6 6 6 6 6 5 5 5 5 5 5 5 5 6 6 7 7 7 7 6 6 6 6 6 6 7 8 8 8 7 6 5 3 2 1 1 1 1 0 0 0
7 7 7 7 6 6 5 5 5 6 6 6 6 7 7 7 7 7 7 7 8 8 8 8 7 7 7 8 9 9 9 9 8 7 5 3 2 2 2 1 1 0 0
8 8 8 7 7 6 5 4 5 6 8 8 9 9 8 8 7 7 6 6 6 7 8 8 8 8 8 9 10 10 10 10 10 8 6 4 3 2 2 2 1 1 0
9 8 8 8 8 7 5 4 4 7 9 10 11 11 10 9 8 8 7 6 5 5 6 7 7 7 7 9 10 11 11 11 10 8 7 4 3 3 3 2 1 1 1
10 10 9 9 8 8 6 4 4 7 11 12 12 12 11 9 8 8 8 8 8 7 6 5 6 6 6 7 9 10 11 10 9 8 7 6 5 4 3 2 2 1 1
13 12 11 10 9 8 6 4 4 7 12 14 13 11 9 8 7 6 7 9 10 10 8 6 5 5 5 5 6 9 9 9 8 9 9 8 7 5 4 3 2 1 1
15 14 12 11 10 9 7 4 4 8 13 14 13 10 8 6 5 4 5 8 10 10 8 6 5 5 4 4 5 7 9 8 8 9 10 9 8 6 4 3 3 2 1
Wind_Speed
1 1 1 2 2 3 3 3 3 3 2 3 3 3 3 3 3 4 5 11 11 10 10 10 9 9 9 9 9 9 8 8 7 6 6 6 6 7 7 6 6 6 6
2 1 2 1 2 2 2 2 3 2 2 2 2 2 2 3 3 4 5 7 11 11 10 10 10 9 10 9 9 8 8 8 7 7 7 7 7 7 7 7 7 6 6
2 2 2 1 1 2 2 2 2 2 3 2 3 3 2 2 3 3 5 4 6 9 10 10 10 10 10 10 9 9 8 8 8 8 8 7 7 7 7 7 7 7 6
2 2 1 1 2 2 2 2 2 2 2 2 2 2 2 2 3 3 3 4 4 5 8 11 10 10 10 10 10 10 9 9 9 9 8 7 7 7 7 7 7 7 7
3 2 1 1 2 1 1 2 2 2 2 2 2 2 2 3 3 4 4 4 4 5 5 8 10 10 10 10 10 10 9 9 9 9 9 9 9 8 8 8 8 7 7
2 2 2 2 1 2 2 2 2 1 1 2 2 2 2 3 3 3 4 4 4 5 6 6 6 7 10 9 10 10 9 9 9 9 10 10 9 8 8 7 7 7 7
2 2 2 2 1 2 2 2 2 2 1 1 1 1 1 2 3 3 3 3 4 4 4 5 5 4 5 10 10 10 10 10 10 10 9 9 9 8 8 8 8 8 7
2 2 3 2 2 2 2 2 2 1 1 1 1 1 0 0 1 2 3 3 3 2 3 5 5 4 4 4 6 10 11 11 11 10 10 9 8 8 8 8 8 8 8
2 2 3 2 2 2 2 2 2 2 1 1 1 2 1 1 0 1 2 3 3 3 2 3 5 5 6 4 4 8 11 10 11 11 10 9 8 8 8 8 9 9 8
2 2 2 2 2 1 1 2 2 1 1 1 1 1 1 1 1 1 1 1 3 3 3 4 4 4 4 4 4 7 9 9 9 9 9 9 9 8 8 8 9 8 8
2 2 2 2 2 1 1 1 1 1 1 1 1 1 1 1 2 1 1 1 1 2 3 4 3 3 4 4 4 6 10 10 9 8 8 8 9 9 9 8 9 9 8
2 2 2 2 1 1 1 1 1 0 1 1 1 1 1 1 1 2 2 2 2 2 3 3 4 4 4 4 6 8 11 11 10 9 8 8 8 8 8 9 9 9 9
2 2 2 2 2 2 1 1 1 1 1 1 1 2 1 1 1 1 2 2 2 2 2 3 3 4 4 4 4 8 9 10 10 9 8 8 8 8 8 8 8 9 9
2 2 3 2 2 2 2 1 1 2 1 1 2 2 2 2 1 1 2 2 2 2 1 2 2 3 3 4 5 8 6 10 10 10 9 8 8 7 7 7 7 7 7
2 2 3 3 2 2 2 2 1 2 2 2 2 2 2 2 2 2 2 2 2 2 2 2 1 3 3 3 6 5 5 9 10 10 10 9 8 8 8 7 7 7 7
1 1 1 2 2 2 2 2 2 2 2 2 2 2 2 2 2 2 2 2 2 2 2 2 1 2 2 3 6 5 5 10 11 11 11 11 10 10 9 9 8 8 7
2 2 2 2 2 2 2 2 3 3 3 3 2 2 2 2 2 2 2 2 2 2 2 2 1 1 1 1 2 3 4 5 6 12 12 12 12 11 11 10 9 9 8
2 1 2 2 2 2 2 3 3 3 3 3 3 3 3 2 3 3 3 2 2 2 2 3 2 1 2 2 3 4 4 5 5 10 13 14 13 12 12 11 10 10 9
2 2 2 2 2 2 2 3 3 3 3 3 3 3 3 2 3 2 2 3 3 3 2 2 3 1 1 2 2 3 4 3 5 6 11 13 13 13 12 12 11 10 10
2 1 2 2 2 2 2 2 2 3 2 2 2 2 1 2 2 3 2 3 3 3 3 3 3 2 2 2 2 2 3 2 3 4 4 6 10 13 12 12 12 11 11
2 1 2 2 2 2 2 2 2 3 2 2 2 1 1 1 1 2 2 2 2 2 3 3 3 2 2 1 2 2 3 2 3 3 2 3 4 5 7 10 12 12 12
1 1 1 1 1 2 2 2 2 2 2 2 2 2 2 3 2 2 2 2 2 3 3 3 2 3 3 2 2 3 3 3 3 2 2 3 3 4 5 5 9 13 13
1 0 1 0 1 1 2 3 2 2 3 2 2 2 3 2 1 1 2 4 4 4 4 3 3 4 3 3 2 3 3 4 4 3 2 3 2 3 3 5 10 13 14
1 1 0 0 0 1 3 3 3 3 3 2 2 2 2 1 2 2 3 3 3 3 4 4 3 4 4 3 3 4 4 5 4 3 2 3 3 3 3 2 8 11 12
0 1 1 0 0 1 2 3 3 3 2 3 2 1 1 0 3 3 3 3 3 3 3 4 4 5 5 5 4 3 3 4 4 4 2 3 3 2 2 2 4 9 10
0 0 1 1 1 0 1 2 2 3 2 2 1 0 1 1 2 2 2 3 4 4 4 3 4 5 5 5 4 4 4 3 4 3 2 2 3 2 3 2 2 3 5
Wind_Direction
133 109 110 121 138 148 160 170 166 159 157 162 172 168 159 153 149 141 150 168 171 176 182 188 193 199 201 201 199 199 198 200 197 194 198 202 205 205 205 206 209 211 212
118 111 110 109 129 141 144 151 145 154 166 161 157 159 163 161 148 147 152 168 177 182 187 194 198 201 203 201 200 199 201 204 200 198 201 205 207 209 211 212 210 207 207
116 122 115 137 138 129 136 137 152 157 167 167 168 171 158 162 150 148 153 165 180 190 193 196 196 199 202 203 204 204 205 207 205 205 205 206 207 210 213 213 213 210 209
110 109 138 146 128 127 136 144 167 150 151 154 155 162 157 154 164 168 171 174 177 187 195 198 201 203 206 208 209 208 209 210 209 207 206 207 211 211 211 212 214 214 212
140 140 124 106 134 135 143 155 134 140 152 148 148 163 164 168 181 190 181 185 187 182 181 192 199 201 206 208 207 209 210 211 209 208 209 210 213 214 213 213 214 216 213
140 138 127 134 148 126 125 108 111 137 138 149 174 173 172 177 185 187 194 197 193 190 184 182 189 205 211 210 210 211 213 212 209 208 211 212 214 213 211 211 214 212 212
133 132 119 128 129 116 121 122 124 139 154 150 113 102 180 188 185 188 200 203 193 187 177 175 179 192 198 208 211 211 213 214 209 208 209 212 213 210 208 208 210 211 213
141 149 125 131 122 123 133 133 123 124 158 167 160 166 197 206 188 205 186 196 193 183 183 188 185 190 193 183 198 210 217 218 214 211 209 210 209 208 209 212 211 212 214
121 104 121 121 113 126 151 162 169 189 185 220 203 184 180 202 210 234 206 195 182 182 192 194 193 194 197 187 187 204 212 216 216 215 212 208 207 207 210 214 215 215 214
110 113 123 135 140 141 148 178 156 193 204 234 220 221 218 172 193 226 244 202 191 184 200 215 208 188 195 183 180 180 193 202 210 214 215 212 211 211 213 217 219 218 218
138 135 132 141 153 157 138 114 102 168 222 245 248 226 215 209 223 205 233 243 221 203 202 204 197 194 189 180 178 182 186 195 201 207 213 213 214 215 218 220 220 220 220
162 157 152 152 151 157 154 149 134 161 278 284 290 276 245 219 232 225 221 235 239 232 206 194 195 191 182 181 192 186 186 189 194 200 209 212 213 216 219 221 221 221 223
166 164 160 157 158 168 174 155 167 213 247 275 287 284 284 266 253 245 218 244 259 255 219 199 194 187 186 171 174 178 181 185 190 196 203 206 208 213 217 220 221 224 227
164 149 163 166 173 189 189 176 201 217 227 248 267 277 281 284 278 258 245 243 263 267 250 237 197 182 180 166 172 176 178 186 189 193 197 200 202 208 211 214 218 221 226
178 174 174 168 178 193 208 211 212 231 231 233 247 264 259 269 263 255 255 242 240 256 253 234 210 185 173 163 171 179 181 189 193 194 196 199 201 204 207 210 214 215 217
177 197 184 176 186 196 215 220 225 232 235 239 234 260 274 267 266 257 252 256 253 246 257 253 231 185 176 192 182 189 188 190 196 196 199 202 204 205 207 209 212 213 214
189 199 199 200 200 205 220 224 230 228 232 242 247 251 259 270 280 282 277 268 264 245 250 277 263 194 173 188 183 204 188 191 197 200 201 204 207 209 211 211 212 212 213
198 194 205 214 219 218 226 233 235 240 238 242 242 245 253 258 271 279 281 278 277 267 248 258 263 249 228 198 197 216 216 213 205 202 202 205 209 210 212 212 211 210 210
205 211 209 219 228 239 245 247 244 248 251 253 249 245 250 249 268 266 277 285 279 276 266 262 264 255 241 226 214 240 241 234 229 213 205 208 212 212 209 210 211 209 208
213 226 237 237 235 241 251 256 252 253 259 266 267 264 271 268 276 279 269 279 283 289 283 271 265 260 245 239 222 239 253 242 253 239 219 209 211 210 211 211 212 210 209
212 220 236 249 252 251 263 268 253 239 243 251 254 257 270 289 289 272 276 290 288 283 278 270 265 274 272 256 252 255 259 254 254 243 222 223 199 203 210 218 217 215 212
215 233 253 268 269 285 348 355 304 271 256 248 247 246 239 249 246 230 242 263 267 271 288 290 282 272 268 263 269 277 278 275 272 249 233 250 220 209 208 207 207 207 209
165 218 289 301 321 351 356 359 335 276 271 265 268 269 272 286 254 255 239 246 258 263 252 266 288 290 288 283 266 267 275 277 269 263 247 256 242 236 230 213 199 202 205
175 187 333 20 298 350 2 351 330 267 266 261 261 271 286 336 322 316 286 264 253 256 254 244 257 272 285 303 282 266 266 269 270 263 238 257 258 254 258 225 203 201 205
172 162 136 116 345 347 356 344 328 285 275 275 273 303 303 329 326 323 298 290 285 274 259 252 245 253 262 272 276 285 282 274 274 271 245 247 260 274 264 231 211 206 211
184 195 173 162 193 314 350 1 344 294 289 293 289 15 39 343 318 331 302 299 290 291 294 279 271 267 262 261 253 239 259 275 282 278 256 245 262 272 269 245 207 202 216